EW4411 Weather Reports


Display with metric or nautical units.
time (UTC)temp
F
wind
direction
speed
MPH
gust
MPH
rain 1hr
in
rain 24hr
in
rain mn
in
humidity
%
barometer
mb
20260507183519 92 289 5.0 13.0 0.00 0.00 0.00 42 1014.0
20260507183012 92 311 6.0 13.0 0.00 0.00 0.00 44 1014.1
20260507182507 91 289 6.0 13.0 0.00 0.00 0.00 44 1014.3
20260507182001 91 249 5.0 14.0 0.00 0.00 0.00 46 1014.3
20260507181456 91 270 5.0 14.0 0.00 0.00 0.00 46 1014.4
20260507180950 91 264 5.0 11.0 0.00 0.00 0.00 47 1014.5
20260507175938 91 238 3.0 11.0 0.00 0.00 0.00 48 1014.7
20260507175432 91 263 4.0 12.0 0.00 0.00 0.00 49 1014.8
20260507174925 90 270 4.0 12.0 0.00 0.00 0.00 47 1014.7
20260507174418 90 246 5.0 16.0 0.00 0.00 0.00 50 1014.8
20260507173914 90 262 5.0 16.0 0.00 0.00 0.00 51 1014.8
20260507173407 90 270 6.0 14.0 0.00 0.00 0.00 51 1014.9
20260507172902 90 259 7.0 14.0 0.00 0.00 0.00 52 1014.9
20260507172354 90 236 6.0 15.0 0.00 0.00 0.00 52 1014.8
20260507171848 89 243 6.0 17.0 0.00 0.00 0.00 54 1014.9
20260507171344 89 266 5.0 17.0 0.00 0.00 0.00 54 1014.9
20260507170332 89 248 6.0 15.0 0.00 0.00 0.00 54 1015.0
20260507165826 89 298 5.0 15.0 0.00 0.00 0.00 54 1014.9
20260507165320 89 275 4.0 12.0 0.00 0.00 0.00 55 1014.9
20260507164306 88 266 7.0 15.0 0.00 0.00 0.00 59 1015.1
20260507163801 88 242 6.0 14.0 0.00 0.00 0.00 59 1015.1
20260507163254 88 275 4.0 12.0 0.00 0.00 0.00 59 1015.2
20260507162749 88 270 4.0 12.0 0.00 0.00 0.00 60 1015.2
20260507162243 88 283 4.0 11.0 0.00 0.00 0.00 60 1015.2
20260507161737 87 254 4.0 12.0 0.00 0.00 0.00 59 1015.3
20260507161232 87 239 4.0 12.0 0.00 0.00 0.00 60 1015.3
20260507160726 87 262 3.0 9.0 0.00 0.00 0.00 60 1015.4
20260507155712 87 225 5.0 16.0 0.00 0.00 0.00 60 1015.6
20260507155208 86 246 4.0 15.0 0.00 0.00 0.00 61 1015.6
20260507154702 86 255 5.0 15.0 0.00 0.00 0.00 62 1015.7
20260507153648 86 289 5.0 13.0 0.00 0.00 0.00 62 1015.9
20260507153144 85 237 4.0 13.0 0.00 0.00 0.00 63 1015.9
20260507152644 85 236 5.0 13.0 0.00 0.00 0.00 63 1016.0
20260507152145 85 271 5.0 9.0 0.00 0.00 0.00 63 1016.1
20260507151646 85 244 4.0 12.0 0.00 0.00 0.00 63 1016.1
20260507151145 85 249 4.0 12.0 0.00 0.00 0.00 63 1016.1
20260507150646 84 264 4.0 12.0 0.00 0.00 0.00 63 1016.1
20260507150145 84 271 5.0 12.0 0.00 0.00 0.00 64 1016.0
20260507145145 83 251 4.0 12.0 0.00 0.00 0.00 66 1016.2
20260507144643 83 247 5.0 13.0 0.00 0.00 0.00 66 1016.2
20260507143641 82 261 4.0 11.0 0.00 0.00 0.00 70 1016.2
20260507143141 82 221 4.0 9.0 0.00 0.00 0.00 70 1016.2
20260507142641 82 208 5.0 12.0 0.00 0.00 0.00 71 1016.2
20260507141643 81 237 5.0 12.0 0.00 0.00 0.00 72 1016.1
20260507141143 81 224 5.0 12.0 0.00 0.00 0.00 72 1016.2
20260507140139 81 261 5.0 12.0 0.00 0.00 0.00 73 1016.2
20260507135636 80 252 6.0 13.0 0.00 0.00 0.00 73 1016.3
20260507135137 80 237 5.0 13.0 0.00 0.00 0.00 73 1016.3
20260507134637 80 264 4.0 9.0 0.00 0.00 0.00 72 1016.2
20260507134136 80 223 4.0 8.0 0.00 0.00 0.00 72 1016.3
20260507133637 80 246 4.0 11.0 0.00 0.00 0.00 72 1016.2
20260507133137 80 219 4.0 12.0 0.00 0.00 0.00 72 1016.4
20260507132636 79 211 4.0 12.0 0.00 0.00 0.00 73 1016.3
20260507132136 79 235 4.0 11.0 0.00 0.00 0.00 73 1016.3
20260507131138 78 220 3.0 11.0 0.00 0.00 0.00 76 1016.3
20260507130132 77 209 3.0 9.0 0.00 0.00 0.00 78 1016.3
20260507125632 77 208 3.0 7.0 0.00 0.00 0.00 79 1016.2
20260507125132 77 260 2.0 6.0 0.00 0.00 0.00 80 1016.3
20260507124632 76 202 2.0 6.0 0.00 0.00 0.00 80 1016.3
20260507124132 76 240 2.0 5.0 0.00 0.00 0.00 81 1016.3
20260507123134 75 242 1.0 4.0 0.00 0.00 0.00 82 1016.4
20260507122634 75 236 1.0 5.0 0.00 0.00 0.00 82 1016.4
20260507122129 74 234 2.0 5.0 0.00 0.00 0.00 82 1016.5
20260507121129 74 212 2.0 5.0 0.00 0.00 0.00 82 1016.5
20260507120629 73 244 2.0 5.0 0.00 0.00 0.00 82 1016.5
20260507120128 73 211 1.0 4.0 0.00 0.00 0.00 83 1016.4
20260507115628 72 237 1.0 5.0 0.00 0.00 0.00 84 1016.4
20260507114130 71 251 2.0 6.0 0.00 0.00 0.00 85 1016.2
20260507113622 71 231 2.0 6.0 0.00 0.00 0.00 85 1016.2
20260507113117 71 250 1.0 4.0 0.00 0.00 0.00 86 1016.1
20260507112611 71 211 1.0 4.0 0.00 0.00 0.00 86 1016.1
20260507112105 70 249 2.0 4.0 0.00 0.00 0.00 86 1016.0
20260507111558 70 246 2.0 4.0 0.00 0.00 0.00 86 1015.9
20260507111053 70 252 1.0 4.0 0.00 0.00 0.00 86 1016.0
20260507110547 70 256 1.0 5.0 0.00 0.00 0.00 87 1016.0
20260507105534 69 256 0.0 3.0 0.00 0.00 0.00 87 1016.0
20260507104521 69 253 1.0 3.0 0.00 0.00 0.00 87 1015.8
20260507104015 69 258 0.0 3.0 0.00 0.00 0.00 87 1015.7
20260507103509 69 256 0.0 3.0 0.00 0.00 0.00 87 1015.7
20260507102456 69 263 1.0 3.0 0.00 0.00 0.00 86 1015.6
20260507101951 69 256 1.0 4.0 0.00 0.00 0.00 86 1015.6
20260507101443 69 268 1.0 4.0 0.00 0.00 0.00 86 1015.6
20260507100939 69 255 1.0 4.0 0.00 0.00 0.00 87 1015.5
20260507100433 69 249 1.0 4.0 0.00 0.00 0.00 87 1015.4
20260507095927 69 254 1.0 3.0 0.00 0.00 0.00 87 1015.3
20260507095420 69 263 1.0 3.0 0.00 0.00 0.00 87 1015.3
20260507094913 69 278 0.0 3.0 0.00 0.00 0.00 87 1015.3
20260507094409 69 266 0.0 3.0 0.00 0.00 0.00 87 1015.1
20260507093357 69 263 0.0 2.0 0.00 0.00 0.00 87 1014.8
20260507092851 69 265 0.0 2.0 0.00 0.00 0.00 87 1014.8
20260507092345 69 264 0.0 2.0 0.00 0.00 0.00 87 1014.8
20260507091838 69 263 0.0 2.0 0.00 0.00 0.00 87 1014.7
20260507091333 69 260 0.0 2.0 0.00 0.00 0.00 87 1014.8
20260507090321 69 268 0.0 2.0 0.00 0.00 0.00 87 1014.8
20260507085815 69 270 0.0 1.0 0.00 0.00 0.00 87 1014.8
20260507084802 69 272 0.0 0.0 0.00 0.00 0.00 87 1014.7
20260507084256 68 283 0.0 0.0 0.00 0.00 0.00 88 1014.8
20260507083749 68 286 0.0 0.0 0.00 0.00 0.00 88 1014.8
20260507082738 68 289 0.0 0.0 0.00 0.00 0.00 88 1014.7
20260507082231 68 289 0.0 0.0 0.00 0.00 0.00 88 1014.8
20260507081727 68 294 0.0 0.0 0.00 0.00 0.00 88 1014.7
20260507081221 68 292 0.0 0.0 0.00 0.00 0.00 87 1014.7
20260507080715 68 293 0.0 0.0 0.00 0.00 0.00 87 1014.7
20260507080208 68 294 0.0 0.0 0.00 0.00 0.00 88 1014.8
20260507075703 68 292 0.0 0.0 0.00 0.00 0.00 87 1014.8
20260507075158 68 293 0.0 0.0 0.00 0.00 0.00 87 1014.8
20260507074651 68 294 0.0 0.0 0.00 0.00 0.00 87 1014.8
20260507074143 68 293 0.0 0.0 0.00 0.00 0.00 87 1014.9
20260507073638 68 290 0.0 0.0 0.00 0.00 0.00 86 1015.0
20260507073138 69 292 0.0 0.0 0.00 0.00 0.00 87 1014.9
20260507072626 69 292 0.0 0.0 0.00 0.00 0.00 86 1014.9
20260507072121 69 294 0.0 0.0 0.00 0.00 0.00 86 1015.0
20260507071614 69 293 0.0 0.0 0.00 0.00 0.00 86 1015.1
20260507071108 69 293 0.0 0.0 0.00 0.00 0.00 85 1015.2
20260507070603 69 293 0.0 0.0 0.00 0.00 0.00 85 1015.2
20260507065045 70 294 0.0 0.0 0.00 0.00 0.00 85 1015.4
20260507064539 70 293 0.0 0.0 0.00 0.00 0.00 85 1015.3
20260507063527 70 292 0.0 0.0 0.00 0.00 0.00 85 1015.4
20260507063019 70 294 0.0 0.0 0.00 0.00 0.00 84 1015.6
20260507062515 70 290 0.0 2.0 0.00 0.00 0.00 84 1015.7
20260507061503 71 293 0.0 2.0 0.00 0.00 0.00 84 1015.8
20260507060956 71 297 1.0 2.0 0.00 0.00 0.00 84 1015.9
20260507060451 71 296 0.0 2.0 0.00 0.00 0.00 84 1015.9
20260507055943 71 296 0.0 1.0 0.00 0.00 0.00 83 1015.9
20260507054933 71 297 1.0 3.0 0.00 0.00 0.00 83 1016.0
20260507054426 71 295 1.0 3.0 0.00 0.00 0.00 82 1016.0
20260507053920 72 275 0.0 1.0 0.00 0.00 0.00 82 1016.0
20260507053414 72 273 0.0 0.0 0.00 0.00 0.00 82 1016.0
20260507052907 72 272 0.0 1.0 0.00 0.00 0.00 82 1016.1
20260507052403 72 273 0.0 2.0 0.00 0.00 0.00 82 1016.1
20260507051857 73 273 1.0 4.0 0.00 0.00 0.00 82 1016.1
20260507050844 73 272 1.0 4.0 0.00 0.00 0.00 81 1016.4
20260507045831 73 269 2.0 7.0 0.00 0.00 0.00 81 1016.3
20260507045327 73 262 4.0 9.0 0.00 0.00 0.00 81 1016.3
20260507044821 74 285 3.0 9.0 0.00 0.00 0.00 80 1016.5
20260507044315 75 293 1.0 9.0 0.00 0.00 0.00 79 1016.6
20260507043807 75 244 3.0 13.0 0.00 0.00 0.00 78 1016.0
20260507042251 77 153 3.0 9.0 0.00 0.00 0.00 77 1015.9
20260507041744 77 259 4.0 9.0 0.00 0.00 0.00 77 1015.8
20260507041238 77 131 5.0 9.0 0.00 0.00 0.00 77 1015.8
20260507040733 77 136 5.0 9.0 0.00 0.00 0.00 77 1015.7
20260507040226 77 156 4.0 9.0 0.00 0.00 0.00 77 1015.7
20260507035721 77 145 3.0 7.0 0.00 0.00 0.00 77 1015.8
20260507035214 77 17 3.0 8.0 0.00 0.00 0.00 77 1015.8
20260507034708 77 152 4.0 8.0 0.00 0.00 0.00 76 1015.8
20260507034202 77 247 3.0 8.0 0.00 0.00 0.00 76 1015.8
20260507033656 77 212 3.0 7.0 0.00 0.00 0.00 76 1015.9
20260507033151 77 140 3.0 7.0 0.00 0.00 0.00 76 1016.0
20260507032645 77 248 4.0 7.0 0.00 0.00 0.00 75 1016.0
20260507032137 77 247 4.0 7.0 0.00 0.00 0.00 75 1016.2
20260507031633 77 105 4.0 8.0 0.00 0.00 0.00 75 1016.1
20260507031132 77 193 3.0 8.0 0.00 0.00 0.00 75 1016.0
20260507030631 77 237 3.0 8.0 0.00 0.00 0.00 75 1016.0
20260507030128 77 172 3.0 8.0 0.00 0.00 0.00 75 1015.9
20260507025629 77 152 3.0 8.0 0.00 0.00 0.00 74 1015.9
20260507025128 78 220 4.0 8.0 0.00 0.00 0.00 74 1016.0
20260507024128 78 145 4.0 9.0 0.00 0.00 0.00 73 1015.9
20260507023628 78 127 4.0 12.0 0.00 0.00 0.00 73 1015.9
20260507023129 78 143 4.0 12.0 0.00 0.00 0.00 73 1015.9
20260507022628 78 209 4.0 9.0 0.00 0.00 0.00 73 1015.9
20260507022129 78 256 4.0 9.0 0.00 0.00 0.00 73 1015.9
20260507021129 78 85 4.0 9.0 0.00 0.00 0.00 73 1015.9
20260507020626 78 150 5.0 9.0 0.00 0.00 0.00 72 1016.0
20260507020124 78 239 5.0 11.0 0.00 0.00 0.00 72 1016.0
20260507015625 78 138 4.0 11.0 0.00 0.00 0.00 72 1015.9
20260507015125 78 143 3.0 8.0 0.00 0.00 0.00 72 1015.8
20260507014619 78 247 4.0 8.0 0.00 0.00 0.00 71 1015.8
20260507014118 78 237 4.0 8.0 0.00 0.00 0.00 71 1015.9
20260507013118 78 114 3.0 9.0 0.00 0.00 0.00 70 1016.0
20260507012615 78 240 3.0 8.0 0.00 0.00 0.00 70 1016.0
20260507012117 78 252 3.0 8.0 0.00 0.00 0.00 69 1016.1
20260507011617 78 195 4.0 8.0 0.00 0.00 0.00 68 1016.1
20260507011116 79 160 4.0 9.0 0.00 0.00 0.00 67 1015.9
20260507010616 79 147 3.0 9.0 0.00 0.00 0.00 66 1015.9
20260507010116 79 145 3.0 7.0 0.00 0.00 0.00 65 1015.8
20260507005615 79 252 3.0 7.0 0.00 0.00 0.00 64 1015.8
20260507005115 79 134 4.0 8.0 0.00 0.00 0.00 63 1015.8
20260507004114 79 240 3.0 6.0 0.00 0.00 0.00 61 1015.6
20260507003615 79 249 4.0 8.0 0.00 0.00 0.00 61 1015.6
20260507003115 80 119 3.0 9.0 0.00 0.00 0.00 60 1015.6
20260507002612 80 229 4.0 11.0 0.00 0.00 0.00 59 1015.6
20260507002112 80 135 4.0 11.0 0.00 0.00 0.00 59 1015.6
20260507001112 80 261 5.0 11.0 0.00 0.00 0.00 57 1015.4
20260507000612 80 121 5.0 13.0 0.00 0.00 0.00 57 1015.4
20260507000113 81 138 4.0 13.0 0.00 0.00 0.00 56 1015.5
20260506235613 81 152 5.0 11.0 0.00 0.00 0.00 56 1015.5
20260506235115 81 295 5.0 11.0 0.00 0.00 0.00 56 1015.5
20260506234614 82 173 5.0 11.0 0.00 0.00 0.00 56 1015.5
20260506234114 82 150 4.0 9.0 0.00 0.00 0.00 56 1015.5
20260506233614 82 268 4.0 11.0 0.00 0.00 0.00 56 1015.5
20260506233112 82 118 5.0 13.0 0.00 0.00 0.00 56 1015.5
20260506232613 82 146 5.0 13.0 0.00 0.00 0.00 55 1015.4
20260506232113 83 118 6.0 12.0 0.00 0.00 0.00 56 1015.5
20260506231613 83 114 6.0 12.0 0.00 0.00 0.00 56 1015.5
20260506231111 83 105 5.0 12.0 0.00 0.00 0.00 56 1015.5
20260506230612 83 100 6.0 15.0 0.00 0.00 0.00 55 1015.5
20260506230113 83 286 6.0 15.0 0.00 0.00 0.00 55 1015.5
20260506224607 83 98 7.0 14.0 0.00 0.00 0.00 55 1015.5
20260506224107 83 103 7.0 14.0 0.00 0.00 0.00 55 1015.4
20260506223608 83 190 6.0 14.0 0.00 0.00 0.00 55 1015.4
20260506222608 83 280 7.0 17.0 0.00 0.00 0.00 54 1015.6
20260506222108 83 136 7.0 15.0 0.00 0.00 0.00 55 1015.6
20260506221609 83 104 8.0 16.0 0.00 0.00 0.00 54 1015.6
20260506220601 84 143 6.0 15.0 0.00 0.00 0.00 55 1015.6
20260506215100 84 183 6.0 15.0 0.00 0.00 0.00 54 1015.6
20260506214559 84 150 7.0 16.0 0.00 0.00 0.00 53 1015.6
20260506214058 84 99 7.0 16.0 0.00 0.00 0.00 53 1015.6
20260506213556 84 148 7.0 15.0 0.00 0.00 0.00 53 1015.6
20260506213054 84 114 8.0 17.0 0.00 0.00 0.00 52 1015.6
20260506212554 84 146 7.0 17.0 0.00 0.00 0.00 53 1015.6
20260506211551 85 86 6.0 13.0 0.00 0.00 0.00 51 1015.6
20260506211051 85 120 8.0 16.0 0.00 0.00 0.00 52 1015.4
20260506210551 85 113 8.0 16.0 0.00 0.00 0.00 51 1015.5
20260506210050 85 124 8.0 16.0 0.00 0.00 0.00 50 1015.5
20260506205548 86 131 6.0 16.0 0.00 0.00 0.00 50 1015.5
20260506204546 85 131 8.0 17.0 0.00 0.00 0.00 51 1015.6
20260506203545 86 147 6.0 14.0 0.00 0.00 0.00 49 1015.7
20260506203046 86 143 6.0 15.0 0.00 0.00 0.00 50 1015.7
20260506202545 86 100 6.0 15.0 0.00 0.00 0.00 48 1015.6
20260506202046 86 139 7.0 16.0 0.00 0.00 0.00 48 1015.6
20260506201543 86 133 8.0 16.0 0.00 0.00 0.00 48 1015.6
20260506201045 86 107 7.0 16.0 0.00 0.00 0.00 49 1015.7
20260506200543 86 228 6.0 13.0 0.00 0.00 0.00 48 1015.7
20260506200044 86 164 7.0 14.0 0.00 0.00 0.00 49 1015.8
20260506195543 86 98 7.0 14.0 0.00 0.00 0.00 46 1015.7
20260506195043 86 136 7.0 18.0 0.00 0.00 0.00 47 1015.8
20260506194541 86 109 8.0 18.0 0.00 0.00 0.00 46 1015.9
20260506194041 86 147 7.0 16.0 0.00 0.00 0.00 47 1015.9
20260506193542 86 122 8.0 16.0 0.00 0.00 0.00 47 1015.9
20260506193040 87 306 7.0 17.0 0.00 0.00 0.00 46 1015.9
20260506192540 87 126 6.0 17.0 0.00 0.00 0.00 46 1016.0
20260506192034 87 253 6.0 13.0 0.00 0.00 0.00 44 1016.0
20260506191528 87 118 6.0 16.0 0.00 0.00 0.00 44 1016.0
20260506191021 87 103 7.0 16.0 0.00 0.00 0.00 46 1016.1
20260506190516 87 103 7.0 15.0 0.00 0.00 0.00 44 1016.3
20260506190009 87 143 6.0 12.0 0.00 0.00 0.00 43 1016.3
20260506185505 87 149 6.0 12.0 0.00 0.00 0.00 44 1016.4
20260506184958 86 261 7.0 12.0 0.00 0.00 0.00 43 1016.5
20260506183946 87 147 6.0 14.0 0.00 0.00 0.00 45 1016.5